FIN7M EFHK-EFIV

Flight info

Callsign FIN7M
Flight time 1h 37m
Altitude 36000
Route TEVRU Y75 USUPO DCT RENVI/N0464F370 DCT SOTIT
Aircraft A320/M-SDE3FGHIRWY/LB1

Departure

Time 2026-04-24 21:37
Airport Helsinki Vantaa Airport (EFHK)

Arrival

Time 2026-04-24 23:14
Airport Ivalo Airport (EFIV)
Time Latitude Longitude Altitude Speed Heading
2026-04-24 20:43 60.31943 24.96684 162 ft 0 kts 137°
2026-04-24 21:28 60.31948 24.96676 161 ft 2 kts 137°
2026-04-24 21:28 60.31960 24.96651 161 ft 3 kts 117°
2026-04-24 21:28 60.31965 24.96617 161 ft 2 kts 92°
2026-04-24 21:28 60.31966 24.96582 161 ft 3 kts 72°
2026-04-24 21:29 60.31960 24.96557 161 ft 0 kts 49°
2026-04-24 21:31 60.31962 24.96561 161 ft 0 kts 49°
2026-04-24 21:31 60.31975 24.96591 161 ft 4 kts 49°
2026-04-24 21:31 60.31993 24.96633 161 ft 5 kts 49°
2026-04-24 21:32 60.32029 24.96709 161 ft 7 kts 46°
2026-04-24 21:32 60.32062 24.96778 161 ft 6 kts 46°
2026-04-24 21:32 60.32090 24.96835 161 ft 7 kts 42°
2026-04-24 21:32 60.32158 24.96838 161 ft 11 kts 333°
2026-04-24 21:33 60.32215 24.96769 161 ft 9 kts 328°
2026-04-24 21:33 60.32247 24.96730 161 ft 7 kts 329°
2026-04-24 21:33 60.32296 24.96670 161 ft 5 kts 329°
2026-04-24 21:33 60.32334 24.96625 161 ft 10 kts 329°
2026-04-24 21:34 60.32456 24.96479 161 ft 34 kts 329°
2026-04-24 21:34 60.32674 24.96226 161 ft 36 kts 329°
2026-04-24 21:34 60.32887 24.95973 161 ft 35 kts 329°
2026-04-24 21:34 60.33093 24.95721 161 ft 31 kts 322°
2026-04-24 21:35 60.33199 24.95406 161 ft 26 kts 249°
2026-04-24 21:35 60.33111 24.95115 161 ft 24 kts 260°
2026-04-24 21:35 60.33113 24.94778 162 ft 24 kts 273°
2026-04-24 21:35 60.33122 24.94457 171 ft 21 kts 269°
2026-04-24 21:36 60.33088 24.94332 174 ft 0 kts 226°
2026-04-24 21:36 60.33067 24.94290 175 ft 23 kts 225°
2026-04-24 21:36 60.32790 24.93673 173 ft 93 kts 228°
2026-04-24 21:37 60.32220 24.92407 163 ft 148 kts 229°
2026-04-24 21:37 60.31482 24.90736 487 ft 166 kts 229°
2026-04-24 21:37 60.30711 24.88955 1094 ft 170 kts 234°
2026-04-24 21:37 60.30167 24.86823 1617 ft 178 kts 258°
2026-04-24 21:38 60.30180 24.84259 1959 ft 193 kts 288°
2026-04-24 21:38 60.30778 24.81655 2239 ft 219 kts 298°
2026-04-24 21:38 60.31537 24.78812 2661 ft 242 kts 297°
2026-04-24 21:38 60.32358 24.75770 3434 ft 249 kts 300°
2026-04-24 21:39 60.33212 24.72708 4256 ft 251 kts 300°
2026-04-24 21:39 60.34052 24.69604 5217 ft 252 kts 300°
2026-04-24 21:39 60.34916 24.66527 6172 ft 252 kts 307°
2026-04-24 21:39 60.36149 24.64101 6996 ft 253 kts 327°
2026-04-24 21:40 60.37801 24.62767 7846 ft 257 kts 348°
2026-04-24 21:40 60.39581 24.62822 8668 ft 265 kts
2026-04-24 21:40 60.41417 24.63666 9506 ft 269 kts
2026-04-24 21:40 60.43236 24.64508 10079 ft 280 kts
2026-04-24 21:41 60.45213 24.65408 10300 ft 303 kts
2026-04-24 21:41 60.47348 24.66376 10466 ft 326 kts
2026-04-24 21:41 60.49634 24.67418 10756 ft 343 kts
2026-04-24 21:41 60.51981 24.68501 11373 ft 348 kts
2026-04-24 21:42 60.54356 24.69603 12066 ft 352 kts
2026-04-24 21:42 60.56748 24.70712 12756 ft 355 kts
2026-04-24 21:42 60.59164 24.71828 13448 ft 358 kts
2026-04-24 21:42 60.61606 24.72952 14042 ft 361 kts
2026-04-24 21:43 60.64065 24.74080 14635 ft 364 kts
2026-04-24 21:43 60.66551 24.75224 15217 ft 368 kts
2026-04-24 21:43 60.69058 24.76381 15790 ft 371 kts
2026-04-24 21:43 60.71596 24.77558 16370 ft 375 kts
2026-04-24 21:44 60.74152 24.78743 16948 ft 378 kts
2026-04-24 21:44 60.76727 24.79941 17526 ft 382 kts
2026-04-24 21:44 60.79338 24.81157 18084 ft 385 kts
2026-04-24 21:44 60.81966 24.82349 18553 ft 387 kts
2026-04-24 21:45 60.84632 24.83058 19026 ft 387 kts
2026-04-24 21:45 60.87318 24.83693 19489 ft 390 kts
2026-04-24 21:45 60.89984 24.84321 19942 ft 393 kts
2026-04-24 21:45 60.92747 24.84970 20388 ft 396 kts
2026-04-24 21:46 60.95457 24.85610 20815 ft 399 kts
2026-04-24 21:46 60.98224 24.86267 21242 ft 401 kts
2026-04-24 21:46 61.01011 24.86928 21653 ft 404 kts 360°
2026-04-24 21:46 61.03813 24.87593 22052 ft 407 kts 360°
2026-04-24 21:47 61.06645 24.88267 22453 ft 410 kts 360°
2026-04-24 21:47 61.08523 24.88715 22713 ft 411 kts 360°
2026-04-24 21:47 61.12341 24.89629 23228 ft 415 kts 360°
2026-04-24 21:47 61.15211 24.90322 23542 ft 417 kts 360°
2026-04-24 21:48 61.18110 24.91023 23856 ft 420 kts 360°
2026-04-24 21:48 61.21021 24.91727 24156 ft 422 kts 360°
2026-04-24 21:48 61.23942 24.92431 24457 ft 424 kts 360°
2026-04-24 21:48 61.26875 24.93134 24747 ft 426 kts 360°
2026-04-24 21:49 61.29829 24.93846 25036 ft 428 kts 360°
2026-04-24 21:49 61.32785 24.94566 25327 ft 429 kts 360°
2026-04-24 21:49 61.35761 24.95295 25602 ft 431 kts 360°
2026-04-24 21:49 61.38717 24.96018 25860 ft 433 kts 359°
2026-04-24 21:50 61.41718 24.96751 26123 ft 435 kts 359°
2026-04-24 21:50 61.44731 24.97491 26382 ft 436 kts 359°
2026-04-24 21:50 61.47750 24.98230 26623 ft 438 kts 359°
2026-04-24 21:50 61.50784 24.98972 26857 ft 440 kts 359°
2026-04-24 21:51 61.53834 24.99720 27082 ft 441 kts 359°
2026-04-24 21:51 61.56890 25.00469 27362 ft 441 kts 359°
2026-04-24 21:51 61.59933 25.01216 27691 ft 440 kts 359°
2026-04-24 21:51 61.62974 25.01894 28030 ft 438 kts 357°
2026-04-24 21:52 61.66006 25.02336 28352 ft 435 kts 355°
2026-04-24 21:52 61.69028 25.02609 28677 ft 434 kts 354°
2026-04-24 21:52 61.71032 25.02742 28880 ft 433 kts 354°
2026-04-24 21:52 61.74029 25.02921 29213 ft 433 kts 354°
2026-04-24 21:53 61.77048 25.03118 29550 ft 433 kts 354°
2026-04-24 21:53 61.80059 25.03357 29855 ft 433 kts 354°
2026-04-24 21:53 61.83064 25.03640 30112 ft 433 kts 355°
2026-04-24 21:53 61.87057 25.04066 30440 ft 434 kts 355°
2026-04-24 21:54 61.89094 25.04289 30609 ft 434 kts 355°
2026-04-24 21:54 61.92103 25.04612 30868 ft 434 kts 355°
2026-04-24 21:54 61.95125 25.04931 31122 ft 434 kts 355°
2026-04-24 21:54 61.98138 25.05243 31379 ft 434 kts 355°
2026-04-24 21:55 62.01152 25.05551 31635 ft 434 kts 355°
2026-04-24 21:55 62.04177 25.05854 31903 ft 434 kts 355°
2026-04-24 21:55 62.07197 25.06160 32170 ft 434 kts 355°
2026-04-24 21:55 62.10213 25.06461 32441 ft 434 kts 355°
2026-04-24 21:56 62.13230 25.06764 32706 ft 433 kts 356°
2026-04-24 21:56 62.16235 25.07070 32976 ft 433 kts 356°
2026-04-24 21:56 62.19237 25.07379 33255 ft 432 kts 356°
2026-04-24 21:56 62.22248 25.07693 33556 ft 431 kts 356°
2026-04-24 21:57 62.25244 25.08006 33808 ft 431 kts 356°
2026-04-24 21:57 62.28232 25.08318 34039 ft 430 kts 356°
2026-04-24 21:57 62.31222 25.08631 34263 ft 430 kts 356°
2026-04-24 21:57 62.34175 25.08943 34480 ft 430 kts 356°
2026-04-24 21:58 62.37161 25.09253 34691 ft 429 kts 356°
2026-04-24 21:58 62.40143 25.09555 34891 ft 429 kts 356°
2026-04-24 21:58 62.43142 25.09855 35070 ft 430 kts 356°
2026-04-24 21:58 62.46129 25.10158 35258 ft 430 kts 356°
2026-04-24 21:59 62.49118 25.10467 35420 ft 431 kts 357°
2026-04-24 21:59 62.52122 25.10786 35583 ft 431 kts 357°
2026-04-24 21:59 62.55125 25.11105 35643 ft 434 kts 357°
2026-04-24 22:00 62.61199 25.11742 35645 ft 437 kts 357°
2026-04-24 22:00 62.67288 25.12391 35645 ft 438 kts 357°
2026-04-24 22:01 62.73379 25.13034 35645 ft 438 kts 357°
2026-04-24 22:01 62.79472 25.13689 35641 ft 438 kts 357°
2026-04-24 22:02 62.85530 25.14334 35643 ft 438 kts 357°
2026-04-24 22:02 62.91621 25.14993 35644 ft 438 kts 357°
2026-04-24 22:03 62.97722 25.15646 35635 ft 438 kts 358°
2026-04-24 22:03 63.03808 25.16311 35630 ft 439 kts 358°
2026-04-24 22:04 63.09904 25.16979 35633 ft 439 kts 358°
2026-04-24 22:04 63.16006 25.17653 35639 ft 439 kts 358°
2026-04-24 22:05 63.22109 25.18309 35633 ft 440 kts 358°
2026-04-24 22:05 63.28225 25.18972 35632 ft 439 kts 358°
2026-04-24 22:06 63.34335 25.19645 35630 ft 440 kts 358°
2026-04-24 22:06 63.40437 25.20328 35627 ft 439 kts 358°
2026-04-24 22:07 63.46542 25.21009 35632 ft 439 kts 358°
2026-04-24 22:07 63.52635 25.21683 35633 ft 438 kts 358°
2026-04-24 22:08 63.58698 25.22366 35638 ft 438 kts 358°
2026-04-24 22:08 63.64786 25.23072 35631 ft 438 kts 358°
2026-04-24 22:09 63.70881 25.23773 35634 ft 438 kts 358°
2026-04-24 22:09 63.76974 25.24463 35628 ft 438 kts 358°
2026-04-24 22:10 63.83058 25.25151 35632 ft 438 kts 358°
2026-04-24 22:10 63.89147 25.25837 35630 ft 438 kts 358°
2026-04-24 22:11 63.95234 25.26536 35637 ft 438 kts 358°
2026-04-24 22:11 64.01274 25.27248 35631 ft 437 kts 358°
2026-04-24 22:12 64.07356 25.27955 35639 ft 437 kts 358°
2026-04-24 22:12 64.13432 25.28661 35634 ft 437 kts 358°
2026-04-24 22:13 64.19503 25.29387 35642 ft 437 kts 358°
2026-04-24 22:13 64.25573 25.30104 35635 ft 436 kts 358°
2026-04-24 22:14 64.31642 25.30819 35642 ft 436 kts 358°
2026-04-24 22:14 64.37705 25.31536 35640 ft 436 kts 358°
2026-04-24 22:15 64.43766 25.32282 35636 ft 436 kts 358°
2026-04-24 22:15 64.49820 25.33008 35640 ft 435 kts 358°
2026-04-24 22:16 64.55870 25.33719 35640 ft 435 kts 358°
2026-04-24 22:16 64.61916 25.34459 35636 ft 435 kts 358°
2026-04-24 22:17 64.67920 25.35200 35639 ft 434 kts 358°
2026-04-24 22:17 64.73956 25.35924 35637 ft 434 kts 358°
2026-04-24 22:18 64.79980 25.36665 35638 ft 433 kts 358°
2026-04-24 22:18 64.86003 25.37422 35634 ft 433 kts 358°
2026-04-24 22:19 64.92025 25.38162 35644 ft 432 kts 358°
2026-04-24 22:19 64.98024 25.38894 35640 ft 432 kts 358°
2026-04-24 22:20 65.04025 25.39638 35640 ft 431 kts 358°
2026-04-24 22:20 65.09979 25.40387 35638 ft 431 kts 358°
2026-04-24 22:21 65.15970 25.41147 35632 ft 431 kts 358°
2026-04-24 22:21 65.21956 25.41913 35642 ft 430 kts 358°
2026-04-24 22:22 65.27929 25.42674 35635 ft 430 kts 358°
2026-04-24 22:22 65.33908 25.43447 35634 ft 430 kts 358°
2026-04-24 22:23 65.39872 25.44220 35636 ft 429 kts 358°
2026-04-24 22:23 65.45841 25.44983 35637 ft 429 kts 358°
2026-04-24 22:24 65.51810 25.45750 35643 ft 429 kts 358°
2026-04-24 22:24 65.57727 25.46530 35636 ft 429 kts 358°
2026-04-24 22:25 65.63688 25.47299 35643 ft 429 kts 358°
2026-04-24 22:25 65.69646 25.48085 35641 ft 428 kts 358°
2026-04-24 22:26 65.75605 25.48870 35647 ft 428 kts 358°
2026-04-24 22:26 65.81552 25.49653 35643 ft 427 kts 358°
2026-04-24 22:27 65.87496 25.50466 35643 ft 427 kts 359°
2026-04-24 22:27 65.93397 25.51256 35641 ft 426 kts 358°
2026-04-24 22:28 65.99323 25.52024 35641 ft 426 kts 358°
2026-04-24 22:28 66.05247 25.52823 35636 ft 426 kts 359°
2026-04-24 22:29 66.14034 25.57697 35631 ft 434 kts 11°
2026-04-24 22:29 66.19810 25.61759 35644 ft 434 kts 11°
2026-04-24 22:30 66.25632 25.65870 35640 ft 434 kts 11°
2026-04-24 22:30 66.31435 25.70022 35638 ft 434 kts 11°
2026-04-24 22:31 66.37246 25.74211 35625 ft 434 kts 11°
2026-04-24 22:31 66.43043 25.78383 35617 ft 433 kts 11°
2026-04-24 22:32 66.48795 25.82522 35602 ft 433 kts 11°
2026-04-24 22:32 66.54581 25.86738 35607 ft 433 kts 11°
2026-04-24 22:33 66.60370 25.90963 35596 ft 433 kts 11°
2026-04-24 22:33 66.66149 25.95211 35604 ft 433 kts 11°
2026-04-24 22:34 66.71939 25.99480 35608 ft 433 kts 11°
2026-04-24 22:34 66.77718 26.03784 35623 ft 433 kts 11°
2026-04-24 22:35 66.83497 26.08098 35628 ft 433 kts 11°
2026-04-24 22:35 66.89290 26.12417 35644 ft 433 kts 12°
2026-04-24 22:36 66.95073 26.16768 35642 ft 433 kts 12°
2026-04-24 22:36 67.00854 26.21135 35645 ft 433 kts 12°
2026-04-24 22:37 67.06596 26.25489 35638 ft 433 kts 12°
2026-04-24 22:37 67.12362 26.29923 35641 ft 433 kts 12°
2026-04-24 22:38 67.18120 26.34339 35634 ft 432 kts 12°
2026-04-24 22:38 67.23900 26.38807 35640 ft 433 kts 12°
2026-04-24 22:39 67.29667 26.43261 35634 ft 433 kts 12°
2026-04-24 22:39 67.35437 26.47750 35642 ft 433 kts 12°
2026-04-24 22:40 67.41215 26.52269 35638 ft 433 kts 12°
2026-04-24 22:40 67.46014 26.56036 35644 ft 433 kts 12°
2026-04-24 22:41 67.51790 26.60603 35644 ft 433 kts 12°
2026-04-24 22:41 67.57542 26.65179 35660 ft 431 kts 12°
2026-04-24 22:42 67.63279 26.69758 35655 ft 430 kts 12°
2026-04-24 22:42 67.68995 26.74365 35482 ft 430 kts 12°
2026-04-24 22:43 67.71862 26.76681 34693 ft 432 kts 12°
2026-04-24 22:43 67.74733 26.79008 34015 ft 430 kts 12°
2026-04-24 22:43 67.77595 26.81329 33296 ft 428 kts 12°
2026-04-24 22:43 67.80431 26.83638 32512 ft 426 kts 12°
2026-04-24 22:44 67.83259 26.85949 31727 ft 424 kts 11°
2026-04-24 22:44 67.86065 26.88238 30940 ft 421 kts 11°
2026-04-24 22:44 67.88817 26.90481 30182 ft 418 kts 11°
2026-04-24 22:44 67.91589 26.92744 29333 ft 415 kts 11°
2026-04-24 22:45 67.94347 26.95005 28311 ft 414 kts 11°
2026-04-24 22:45 67.97097 26.97272 27217 ft 413 kts 11°
2026-04-24 22:45 67.99866 26.99552 25545 ft 421 kts 11°
2026-04-24 22:45 68.02688 27.01868 24140 ft 425 kts 11°
2026-04-24 22:46 68.05474 27.04194 23404 ft 413 kts 11°
2026-04-24 22:46 68.08186 27.06486 22534 ft 405 kts 11°
2026-04-24 22:46 68.10850 27.08735 21641 ft 398 kts 11°
2026-04-24 22:46 68.13479 27.10949 20760 ft 393 kts 11°
2026-04-24 22:47 68.16076 27.13133 19910 ft 389 kts 12°
2026-04-24 22:47 68.18648 27.15290 19095 ft 386 kts 11°
2026-04-24 22:47 68.21205 27.17434 18340 ft 382 kts 12°
2026-04-24 22:47 68.23724 27.19600 17552 ft 380 kts 14°
2026-04-24 22:48 68.26182 27.22266 16693 ft 379 kts 17°
2026-04-24 22:48 68.28614 27.24975 15883 ft 377 kts 17°
2026-04-24 22:48 68.31030 27.27691 15126 ft 375 kts 18°
2026-04-24 22:48 68.33432 27.30405 14384 ft 373 kts 18°
2026-04-24 22:49 68.35815 27.33101 13677 ft 371 kts 18°
2026-04-24 22:49 68.38191 27.35783 12932 ft 369 kts 18°
2026-04-24 22:49 68.40543 27.38446 12237 ft 364 kts 19°
2026-04-24 22:49 68.42868 27.41091 11575 ft 359 kts 18°
2026-04-24 22:50 68.45151 27.43696 10903 ft 354 kts 18°
2026-04-24 22:50 68.47374 27.46235 10245 ft 349 kts 18°
2026-04-24 22:50 68.49596 27.48778 9601 ft 344 kts 18°
2026-04-24 22:50 68.51784 27.51290 8863 ft 338 kts 19°
2026-04-24 22:51 68.53854 27.54348 8089 ft 341 kts 31°
2026-04-24 22:51 68.55600 27.58771 7318 ft 343 kts 41°
2026-04-24 22:51 68.57212 27.63510 6543 ft 339 kts 41°
2026-04-24 22:51 68.58809 27.68245 5763 ft 336 kts 41°
2026-04-24 22:52 68.60377 27.72915 4947 ft 332 kts 42°
2026-04-24 22:52 68.61927 27.77565 4121 ft 328 kts 42°
2026-04-24 22:52 68.63451 27.82189 3269 ft 327 kts 43°
2026-04-24 22:52 68.64969 27.86784 2738 ft 318 kts 43°
2026-04-24 22:53 68.66410 27.91149 2590 ft 300 kts 43°
2026-04-24 22:53 68.67758 27.95274 2594 ft 279 kts 42°
2026-04-24 22:53 68.68992 27.99129 2602 ft 259 kts 43°
2026-04-24 22:53 68.70110 28.02705 2601 ft 240 kts 43°
2026-04-24 22:54 68.71153 28.06098 2606 ft 219 kts 43°
2026-04-24 22:54 68.72094 28.09228 2602 ft 208 kts 43°
2026-04-24 22:54 68.73022 28.12326 2608 ft 218 kts 43°
2026-04-24 22:54 68.74012 28.15618 2610 ft 222 kts 43°
2026-04-24 22:55 68.74991 28.18869 2607 ft 223 kts 43°
2026-04-24 22:55 68.75978 28.22151 2604 ft 223 kts 43°
2026-04-24 22:55 68.76966 28.25447 2604 ft 222 kts 43°
2026-04-24 22:55 68.77954 28.28751 2604 ft 223 kts 43°
2026-04-24 22:56 68.78938 28.32048 2605 ft 223 kts 43°
2026-04-24 22:56 68.79920 28.35351 2602 ft 223 kts 43°
2026-04-24 22:56 68.80914 28.38620 2601 ft 219 kts 37°
2026-04-24 22:56 68.82157 28.40808 2602 ft 208 kts 12°
2026-04-24 22:57 68.83550 28.41194 2603 ft 200 kts 348°
2026-04-24 22:57 68.84838 28.39832 2599 ft 199 kts 326°
2026-04-24 22:57 68.85777 28.37027 2603 ft 203 kts 303°
2026-04-24 22:57 68.86186 28.33220 2599 ft 213 kts 278°
2026-04-24 22:58 68.85875 28.29091 2813 ft 230 kts 251°
2026-04-24 22:58 68.84954 28.25312 2967 ft 239 kts 242°
2026-04-24 22:58 68.83971 28.21589 3015 ft 240 kts 242°
2026-04-24 22:58 68.82983 28.17862 3019 ft 240 kts 242°
2026-04-24 22:59 68.82018 28.14232 3013 ft 227 kts 242°
2026-04-24 22:59 68.81106 28.10838 3013 ft 212 kts 243°
2026-04-24 22:59 68.79487 28.04840 3014 ft 181 kts 245°
2026-04-24 23:00 68.78770 28.02175 3045 ft 167 kts 246°
2026-04-24 23:00 68.78099 27.99662 3012 ft 160 kts 247°
2026-04-24 23:00 68.77447 27.97194 3011 ft 158 kts 247°
2026-04-24 23:00 68.76798 27.94731 3019 ft 158 kts 247°
2026-04-24 23:01 68.76150 27.92287 3005 ft 158 kts 247°
2026-04-24 23:01 68.75501 27.89845 3017 ft 158 kts 247°
2026-04-24 23:01 68.74852 27.87396 3012 ft 158 kts 247°
2026-04-24 23:01 68.74203 27.84951 3011 ft 158 kts 246°
2026-04-24 23:02 68.73549 27.82501 3010 ft 158 kts 247°
2026-04-24 23:02 68.72895 27.80062 3015 ft 159 kts 246°
2026-04-24 23:02 68.72239 27.77631 3010 ft 158 kts 246°
2026-04-24 23:02 68.71571 27.75128 3033 ft 174 kts 246°
2026-04-24 23:03 68.70817 27.72233 3001 ft 200 kts 245°
2026-04-24 23:03 68.69980 27.69095 2990 ft 206 kts 244°
2026-04-24 23:03 68.69117 27.65910 2954 ft 209 kts 243°
2026-04-24 23:03 68.68195 27.62739 2538 ft 215 kts 238°
2026-04-24 23:04 68.67195 27.59667 2187 ft 215 kts 236°
2026-04-24 23:04 68.66180 27.56648 1856 ft 213 kts 235°
2026-04-24 23:04 68.65179 27.53684 1547 ft 210 kts 233°
2026-04-24 23:04 68.64195 27.50771 1266 ft 206 kts 230°
2026-04-24 23:05 68.63219 27.47886 988 ft 206 kts 228°
2026-04-24 23:05 68.62243 27.44999 680 ft 208 kts 227°
2026-04-24 23:05 68.61265 27.42121 522 ft 203 kts 227°
2026-04-24 23:05 68.60216 27.39736 885 ft 196 kts 199°
2026-04-24 23:06 68.58851 27.39763 1513 ft 217 kts 160°
2026-04-24 23:06 68.57480 27.42161 2167 ft 246 kts 130°
2026-04-24 23:06 68.56534 27.46185 2936 ft 266 kts 109°
2026-04-24 23:06 68.55844 27.51083 3673 ft 288 kts 101°
2026-04-24 23:07 68.55313 27.56556 4484 ft 305 kts 94°
2026-04-24 23:07 68.54972 27.62394 5344 ft 318 kts 88°
2026-04-24 23:07 68.55129 27.68590 5541 ft 337 kts 65°
2026-04-24 23:07 68.56332 27.74048 5560 ft 332 kts 41°
2026-04-24 23:08 68.57927 27.78071 5575 ft 292 kts 31°
2026-04-24 23:08 68.59493 27.81130 5598 ft 264 kts 25°
2026-04-24 23:08 68.61043 27.84090 5763 ft 285 kts 29°
2026-04-24 23:08 68.62674 27.86817 5708 ft 262 kts 20°
2026-04-24 23:09 68.64291 27.88596 5627 ft 240 kts 12°
2026-04-24 23:09 68.65827 27.89968 5602 ft 223 kts 12°
2026-04-24 23:09 68.67265 27.91078 5577 ft 207 kts
2026-04-24 23:09 68.68621 27.91516 5554 ft 187 kts 346°
2026-04-24 23:10 68.69670 27.89659 5559 ft 187 kts 316°
2026-04-24 23:10 68.70246 27.86324 5559 ft 202 kts 286°
2026-04-24 23:10 68.70011 27.82355 5457 ft 218 kts 262°
2026-04-24 23:10 68.69583 27.78430 5178 ft 213 kts 266°
2026-04-24 23:11 68.69224 27.74657 5018 ft 197 kts 267°
2026-04-24 23:11 68.68896 27.71101 4871 ft 184 kts 268°
2026-04-24 23:11 68.68592 27.67795 4663 ft 176 kts 269°
2026-04-24 23:11 68.68293 27.64400 3990 ft 188 kts 267°
2026-04-24 23:12 68.67711 27.61172 3379 ft 195 kts 241°
2026-04-24 23:12 68.66812 27.58505 3024 ft 179 kts 237°
2026-04-24 23:12 68.65980 27.56066 2334 ft 180 kts 237°
2026-04-24 23:12 68.65114 27.53330 1435 ft 187 kts 233°
2026-04-24 23:13 68.64282 27.50982 1304 ft 159 kts 229°
2026-04-24 23:13 68.63574 27.48932 1116 ft 143 kts 230°
2026-04-24 23:13 68.62924 27.46982 918 ft 136 kts 228°
2026-04-24 23:13 68.62286 27.45133 712 ft 133 kts 227°
2026-04-24 23:14 68.61662 27.43294 548 ft 131 kts 226°
2026-04-24 23:14 68.61067 27.41529 476 ft 110 kts 228°
2026-04-24 23:14 68.60717 27.40489 478 ft 30 kts 228°
2026-04-24 23:14 68.60640 27.40479 475 ft 10 kts 101°
2026-04-24 23:15 68.60634 27.40641 476 ft 5 kts 93°
2026-04-24 23:15 68.60634 27.40733 481 ft 8 kts 86°
2026-04-24 23:15 68.60673 27.41022 481 ft 17 kts 51°
2026-04-24 23:15 68.60747 27.41260 480 ft 16 kts 48°
2026-04-24 23:16 68.60745 27.41435 479 ft 8 kts 140°
2026-04-24 23:16 68.60740 27.41552 477 ft 7 kts 64°
2026-04-24 23:16 68.60769 27.41689 479 ft 9 kts 62°
2026-04-24 23:16 68.60794 27.41769 481 ft 0 kts 46°
2026-04-24 23:17 68.60745 27.41632 478 ft 0 kts 46°
2026-04-24 23:19 68.60763 27.41640 481 ft 0 kts 53°